Time[GMT],air_temperature[C](-3m),wind_speed[m/s](-4m),wind_gust[m/s](-4m),visibility[m](-3m),barometric_pressure[millibars](-3m),wind_2_direction[degrees_true](-4m),wind_2_gust[m/s](-4m),wind_2_gust_1s[m/s](-4m),wind_2_min[m/s](-4m),wind_2_percent_good[m/s](-4m),wind_2_speed[m/s](-4m),wind_direction[degrees_true](-4m),wind_gust_1s[m/s](-4m),wind_min[m/s](-4m)
2007-05-10 08:00,6.1,,, 479,1013.63,195.60,5.69,6.58,,1.00,4.90,,6.47,3.14
2007-05-10 09:00,6.0,,,2703,1013.57,207.00,5.02,5.86,,1.00,4.49,,5.49,2.94
2007-05-10 10:00,6.0,,,2829,1013.94,219.10,4.16,4.95,,1.00,3.61,,4.31,2.35
2007-05-10 11:00,6.0,,,2879,1014.73,266.00,1.88,2.23,,1.00,1.42,,1.76,0.39
2007-05-10 12:00,6.4,,,2867,1015.04,237.70,2.22,3.05,,1.00,1.63,,2.16,0.59
2007-05-10 13:00,7.4,,,2886,1015.28,173.30,2.68,3.54,,1.00,1.99,,2.94,0.59
2007-05-10 14:00,7.4,,,2936,1015.53,139.60,1.24,1.99,,1.00,0.88,,1.37,0.00
2007-05-10 15:00,7.2,,,2883,1015.77,182.20,3.25,4.11,,1.00,2.76,,3.33,1.57
2007-05-10 16:00,7.4,,,2918,1015.47,188.80,1.97,2.96,,1.00,1.75,,2.16,0.98
2007-05-10 17:00,7.7,,,2907,1014.85,217.30,1.75,2.26,,1.00,1.21,,1.57,0.00
2007-05-10 18:00,7.7,,,2922,1014.85,175.40,2.07,3.08,,1.00,1.69,,2.55,0.78
2007-05-10 19:00,7.4,,,2916,1014.85,184.30,4.08,4.61,,1.00,3.37,,4.51,2.35
2007-05-10 20:00,7.5,,,2877,1014.55,199.80,1.99,2.78,,1.00,1.76,,2.35,0.98
2007-05-10 21:00,7.5,,,2892,1014.36,186.00,2.44,2.88,,1.00,1.83,,2.55,0.78
2007-05-10 22:00,6.8,,, 231,1014.00,179.90,4.24,4.57,,1.00,3.52,,4.51,2.55
2007-05-10 23:00,6.8,,, 134,1014.18,178.00,5.63,6.35,,1.00,4.89,,5.88,3.33
2007-05-11 00:00,6.7,,, 157,1014.24,179.90,4.11,4.74,,1.00,3.32,,4.12,1.96
2007-05-11 01:00,6.8,,, 280,1014.49,187.60,4.51,5.25,,1.00,4.01,,4.51,2.94
2007-05-11 02:00,6.8,,, 248,1014.85,144.60,1.93,2.81,,1.00,1.49,,1.76,0.59
2007-05-11 03:00,6.6,,, 256,1014.98,114.30,2.92,3.50,,1.00,2.57,,2.74,1.57
2007-05-11 04:00,6.8,,, 200,1014.85,134.50,2.69,3.62,,1.00,2.28,,2.74,1.37
2007-05-11 06:00,6.8,,, 255,1013.88,93.70,1.96,2.39,,1.00,1.55,,1.76,0.59
2007-05-11 07:00,8.3,,, 477,1013.26,147.60,2.30,3.11,,1.00,2.00,,2.35,1.18
2007-05-11 08:00,7.2,,, 522,1012.83,171.40,3.06,3.85,,1.00,2.67,,3.33,1.76
2007-05-11 09:00,6.9,,, 266,1012.53,187.60,4.28,5.03,,1.00,2.86,,4.70,1.57
2007-05-11 11:00,6.9,,, 399,1012.90,180.10,3.04,3.71,,1.00,2.46,,3.14,1.18
2007-05-11 12:00,6.7,,, 384,1012.41,187.20,6.00,7.32,,1.00,5.29,,6.86,3.92
2007-05-11 13:00,6.6,,, 304,1012.35,188.10,5.72,6.73,,1.00,4.84,,6.08,3.33
2007-05-11 14:00,6.5,,, 334,1012.04,182.90,6.34,7.09,,1.00,5.24,,6.86,3.33
2007-05-11 15:00,6.5,,, 357,1012.28,212.30,4.65,5.36,,1.00,3.52,,4.90,1.57
2007-05-11 16:00,6.9,,, 428,1012.35,240.30,4.22,4.73,,1.00,3.60,,4.51,2.55
2007-05-11 17:00,6.9,,,1119,1011.80,204.30,2.75,3.38,,1.00,2.36,,2.94,1.37
2007-05-11 18:00,6.6,,, 681,1011.18,185.80,4.31,4.95,,1.00,3.42,,4.70,2.16
2007-05-11 19:00,7.0,,,2658,1010.45,198.40,4.22,5.26,,1.00,3.66,,4.90,2.35
2007-05-11 20:00,6.9,,, 730,1009.35,189.40,6.05,6.61,,1.00,5.31,,6.47,3.92
2007-05-11 22:00,7.0,,, 287,1008.92,209.70,5.49,6.28,,1.00,4.84,,6.27,3.72
2007-05-11 23:00,7.0,,, 262,1009.04,237.40,3.93,4.54,,1.00,3.33,,4.12,2.16
2007-05-12 00:00,6.4,,, 432,1008.62,192.60,3.21,3.79,,1.00,2.79,,3.33,1.96
2007-05-12 01:00,6.2,,, 417,1009.47,239.50,2.08,2.75,,1.00,1.69,,2.16,0.98
2007-05-12 02:00,6.1,,, 353,1009.17,211.60,2.96,3.43,,1.00,2.55,,3.14,1.57
2007-05-12 03:00,6.4,,, 525,1009.78,266.00,2.93,3.36,,1.00,2.05,,2.74,0.98
2007-05-12 04:00,6.5,,, 567,1009.72,240.40,3.42,3.92,,1.00,2.86,,3.72,1.96
2007-05-12 05:00,7.1,,,2711,1010.27,300.20,5.03,5.40,,1.00,4.06,,5.88,2.74
2007-05-12 06:00,8.2,,,2955,1010.69,359.47,5.29,5.70,,1.00,4.54,,5.68,3.14
2007-05-12 07:00,8.1,,,2951,1011.18,355.24,6.04,6.68,,1.00,5.28,,6.47,3.53
2007-05-12 09:00,7.9,,,2950,1012.77,5.04,9.58,10.40,,1.00,7.92,,10.19,5.68
2007-05-12 10:00,7.4,,,2471,1014.18,0.49,7.62,8.89,,1.00,6.73,,8.23,4.51
2007-05-12 11:00,7.0,,,2804,1014.98,357.26,6.91,7.83,,1.00,5.53,,7.45,3.53
2007-05-12 12:00,6.7,,,2931,1015.65,11.40,7.19,7.98,,1.00,5.99,,7.64,4.12
2007-05-12 13:00,6.7,,,2917,1015.96,6.17,6.08,6.88,,1.00,5.23,,6.66,3.92
2007-05-12 15:00,6.9,,,2963,1016.81,358.37,2.89,3.57,,1.00,2.38,,2.94,1.37
2007-05-12 16:00,8.6,,,2962,1016.81,54.20,2.31,3.29,,1.00,1.91,,2.35,1.18
2007-05-12 17:00,8.5,,,2956,1016.20,118.20,2.28,2.80,,1.00,2.00,,2.16,1.18
2007-05-12 18:00,9.3,,,2959,1016.20,203.90,3.32,3.90,,1.00,2.15,,3.53,0.78
2007-05-12 19:00,8.1,,,2965,1015.83,225.70,3.73,4.15,,1.00,3.32,,3.92,2.35
2007-05-12 21:00,7.8,,,2950,1015.65,172.30,4.30,4.66,,1.00,3.82,,4.51,2.94
2007-05-12 22:00,8.0,,,2953,1015.71,157.20,3.20,3.49,,1.00,2.79,,3.33,2.16
2007-05-12 23:00,6.9,,,2962,1016.26,215.00,2.65,3.05,,1.00,2.33,,2.74,1.57
2007-05-13 00:00,6.6,,,2957,1016.14,163.90,2.33,2.61,,1.00,1.98,,1.96,1.18
2007-05-13 01:00,6.3,,,2960,1016.75,200.40,1.79,2.21,,1.00,1.49,,1.57,0.59
2007-05-13 02:00,6.4,,,2961,1017.06,238.20,3.53,3.86,,1.00,3.00,,3.33,2.16
2007-05-13 03:00,6.5,,,2958,1017.00,239.10,4.00,4.25,,1.00,3.33,,3.53,2.16
2007-05-13 04:00,6.8,,,2963,1017.12,228.40,3.27,3.66,,1.00,2.75,,3.14,1.96
2007-05-13 05:00,6.7,,,2958,1016.75,217.00,3.65,3.87,,1.00,3.10,,3.53,2.16
2007-05-13 06:00,6.4,,,2964,1016.69,190.40,4.32,4.58,,1.00,3.53,,4.12,2.16
2007-05-13 07:00,6.3,,,2960,1016.26,194.30,2.88,3.20,,1.00,2.41,,2.74,1.76
2007-05-13 08:00,6.0,,,2960,1015.77,200.40,3.05,3.32,,1.00,2.63,,3.14,1.96
2007-05-13 09:00,6.2,,,2960,1015.90,231.10,3.97,4.32,,1.00,3.59,,4.31,2.74
2007-05-13 10:00,6.2,,,2951,1016.14,257.10,3.18,3.48,,1.00,2.77,,3.33,2.16
2007-05-13 11:00,6.2,,,2950,1016.14,192.10,1.62,1.90,,1.00,1.29,,1.57,0.00
2007-05-13 12:00,6.3,,,2957,1016.57,347.37,2.30,2.62,,1.00,1.77,,1.96,0.78
2007-05-13 13:00,7.2,,,2950,1017.00,9.15,2.70,3.09,,1.00,1.80,,2.74,0.00
2007-05-13 14:00,7.8,,,2960,1017.06,345.74,2.78,3.56,,1.00,2.10,,3.33,1.18
2007-05-13 15:00,7.8,,,2963,1017.00,260.90,2.68,3.08,,1.00,2.06,,2.55,1.18
2007-05-13 16:00,8.1,,,2960,1016.57,257.10,3.00,3.45,,1.00,2.55,,2.94,1.57
2007-05-13 17:00,10.4,,,2957,1016.02,265.60,2.40,2.63,,1.00,1.89,,2.35,0.98
2007-05-13 18:00,10.1,,,2965,1015.71,199.30,4.22,4.44,,1.00,3.00,,4.51,0.98
2007-05-13 19:00,11.0,,,2960,1015.10,351.32,4.44,4.80,,1.00,3.11,,4.51,1.37
2007-05-13 20:00,10.1,,,2962,1014.55,288.40,3.37,3.79,,1.00,2.67,,3.72,1.76
2007-05-13 21:00,12.7,,,2965,1014.49,315.50,2.95,3.95,,1.00,1.74,,3.14,0.00
2007-05-13 22:00,9.8,,,2955,1014.85,335.90,4.41,5.29,,1.00,3.49,,4.90,2.16
2007-05-13 23:00,9.9,,,2957,1015.53,318.30,6.53,8.42,,1.00,6.05,,7.84,4.31
2007-05-14 00:00,9.7,,,2956,1016.63,318.10,8.27,9.38,,1.00,6.71,,8.82,4.90
2007-05-14 01:00,9.1,,,2959,1017.85,326.20,7.04,7.73,,1.00,6.01,,7.25,4.12
2007-05-14 02:00,8.7,,,2951,1018.65,318.40,6.42,7.60,,1.00,5.85,,7.25,4.12
2007-05-14 03:00,8.2,,,2960,1019.14,322.30,6.43,7.41,,1.00,5.53,,7.25,4.12
2007-05-14 04:00,7.5,,,2962,1019.82,331.30,4.99,5.95,,1.00,4.40,,5.68,3.33
2007-05-14 05:00,7.2,,,2953,1020.18,327.20,4.61,5.40,,1.00,4.07,,4.90,2.74
2007-05-14 07:00,6.3,,,2950,1019.94,302.30,3.43,3.95,,1.00,2.87,,3.72,1.96
2007-05-14 08:00,6.1,,,2962,1020.31,303.40,3.90,4.61,,1.00,3.35,,4.12,2.55
2007-05-14 09:00,5.9,,,2957,1020.31,302.40,3.87,4.15,,1.00,3.01,,4.12,2.16
2007-05-14 10:00,6.4,,,2959,1020.74,302.20,4.57,4.79,,1.00,3.46,,4.70,2.35
2007-05-14 12:00,6.3,,,2959,1021.47,289.50,1.98,2.19,,1.00,1.63,,1.96,0.78
2007-05-14 13:00,6.5,,,2961,1021.41,260.10,3.15,3.55,,1.00,2.72,,3.33,2.16
2007-05-14 15:00,6.8,,,2963,1021.41,210.80,3.48,3.79,,1.00,3.08,,3.72,2.16
2007-05-14 16:00,6.8,,,2963,1021.16,207.00,4.78,5.12,,1.00,4.23,,5.10,3.53
2007-05-14 17:00,6.9,,,2941,1020.61,208.20,6.05,6.46,,1.00,5.23,,6.47,4.12
2007-05-14 18:00,7.5,,,2877,1020.12,213.70,7.57,8.56,,1.00,6.53,,8.23,4.70
2007-05-14 19:00,7.5,,,2900,1019.94,212.80,6.09,6.92,,1.00,5.40,,6.47,3.53
2007-05-14 20:00,7.3,,,2749,1019.39,197.30,6.74,7.47,,1.00,5.89,,7.06,4.12
2007-05-14 21:00,7.2,,,2710,1018.90,199.20,7.87,8.52,,1.00,6.63,,8.43,4.90
2007-05-14 23:00,7.0,,,2924,1018.35,207.20,6.63,7.40,,1.00,5.75,,7.25,4.12
2007-05-15 00:00,7.1,,,2889,1018.04,205.40,5.37,6.18,,1.00,4.71,,6.08,2.94
2007-05-15 05:00,7.5,,,2896,1016.26,183.00,7.11,7.95,,1.00,6.27,,7.45,4.70
2007-05-15 06:00,6.9,,,2853,1014.98,186.50,6.62,7.68,,1.00,5.97,,6.86,4.12
2007-05-15 07:00,7.0,,,2864,1014.49,203.40,5.73,6.80,,1.00,4.81,,5.88,2.74
2007-05-15 09:00,7.4,,,2874,1012.83,224.60,6.58,7.12,,1.00,5.50,,6.86,3.33
2007-05-15 10:00,7.6,,,2869,1012.41,219.00,7.80,8.44,,1.00,6.76,,8.23,4.31
2007-05-15 13:00,7.4,,,2758,1010.21,225.20,9.52,10.14,,1.00,7.97,,10.19,5.49
2007-05-15 14:00,7.3,,,2480,1009.53,226.80,9.34,10.81,,1.00,8.01,,10.58,5.88
2007-05-15 16:00,7.1,,,2610,1007.58,225.80,8.05,8.74,,1.00,6.34,,8.23,4.12
2007-05-15 18:00,7.1,,,2578,1007.15,259.80,5.46,6.34,,1.00,4.74,,6.27,2.74
2007-05-15 19:00,6.8,,,2548,1006.54,259.70,3.93,5.09,,1.00,2.71,,4.31,0.78
2007-05-15 21:00,6.9,,,2549,1005.62,228.40,4.62,5.54,,1.00,3.68,,5.10,1.96
2007-05-15 23:00,6.8,,,2170,1006.97,264.00,2.58,3.81,,1.00,1.98,,3.53,0.59
2007-05-16 00:00,6.4,,,2239,1006.84,195.00,2.34,3.79,,1.00,1.81,,2.35,0.39
2007-05-16 02:00,6.5,,,2471,1008.01,241.40,1.71,2.77,,1.00,1.18,,1.96,0.00
2007-05-16 03:00,6.4,,,2410,1007.70,118.30,1.45,2.37,,1.00,1.11,,1.37,0.00
2007-05-16 09:00,6.5,,, 621,1009.35,19.66,3.03,4.34,,1.00,2.37,,3.92,1.37
2007-05-16 11:00,6.6,,,2664,1008.98,73.20,5.66,6.23,,1.00,4.98,,6.27,3.53
2007-05-16 12:00,6.6,,,2484,1009.35,69.90,5.99,6.54,,1.00,4.97,,6.27,3.72
2007-05-16 13:00,6.4,,,1720,1009.53,62.80,6.24,7.30,,1.00,5.42,,7.45,4.12
2007-05-16 15:00,6.4,,,2130,1009.90,49.63,10.92,11.97,,1.00,9.18,,11.56,5.68
2007-05-16 16:00,5.9,,,2584,1009.41,59.30,13.94,15.62,,1.00,12.05,,15.09,7.64
2007-05-16 17:00,5.2,,,2424,1009.53,54.00,15.24,17.67,,1.00,13.25,,17.84,8.62
2007-05-16 19:00,4.7,,,1556,1009.90,59.80,16.36,17.52,,1.00,13.46,,17.25,7.45
2007-05-16 20:00,4.5,,,1215,1009.72,52.18,16.76,17.58,,1.00,14.12,,18.03,9.02
2007-05-16 21:00,4.6,,, 844,1009.78,52.90,14.87,17.37,,1.00,12.30,,16.27,7.45
2007-05-16 22:00,4.6,,, 589,1009.90,58.10,15.55,16.27,,1.00,12.68,,16.07,8.04
2007-05-16 23:00,5.1,,,2292,1009.04,66.70,14.41,16.90,,1.00,12.09,,16.27,7.25
2007-05-17 00:00,5.0,,,2396,1010.08,62.00,12.94,13.68,,1.00,10.36,,14.70,6.66
2007-05-17 04:00,4.7,,,1904,1008.49,66.10,15.69,16.58,,1.00,12.69,,16.07,8.23
2007-05-17 05:00,4.8,,,2534,1008.56,63.00,14.33,15.86,,1.00,11.44,,15.88,7.25
2007-05-17 06:00,4.7,,,2616,1009.23,42.73,12.98,14.61,,1.00,11.15,,14.90,6.86
2007-05-17 07:00,4.6,,,1699,1009.35,42.88,13.89,15.60,,1.00,12.10,,15.88,6.47
2007-05-17 08:00,4.4,,,1699,1010.21,35.84,14.25,15.58,,1.00,12.07,,15.09,7.64
2007-05-17 09:00,4.4,,,2798,1011.37,33.00,13.01,15.23,,1.00,11.30,,14.90,6.66
2007-05-17 11:00,4.2,,,2891,1014.55,35.41,12.30,13.53,,1.00,10.28,,13.52,4.51
2007-05-17 12:00,4.2,,,2927,1015.34,42.64,12.09,13.23,,1.00,10.01,,13.13,6.66
2007-05-17 13:00,4.0,,,2882,1016.51,26.75,9.48,10.51,,1.00,7.93,,10.19,4.70
2007-05-17 14:00,4.1,,,2919,1017.49,28.49,9.02,10.64,,1.00,7.35,,10.98,3.33
2007-05-17 15:00,4.3,,,2889,1018.53,33.72,7.46,8.96,,1.00,6.21,,8.82,3.92
2007-05-17 16:00,4.7,,,2920,1019.20,32.58,5.97,7.16,,1.00,5.22,,6.86,3.14
2007-05-17 19:00,5.5,,,2947,1021.78,41.33,2.34,3.30,,1.00,1.83,,2.74,0.39
2007-05-17 21:00,6.2,,,2947,1023.25,33.77,5.02,5.50,,1.00,3.85,,5.49,2.16
2007-05-17 22:00,6.1,,,2955,1023.86,15.25,6.14,6.79,,1.00,4.52,,6.66,2.74
2007-05-17 23:00,6.0,,,2962,1024.54,32.09,5.02,5.51,,1.00,4.18,,5.49,2.35
2007-05-18 00:00,5.6,,,2957,1025.28,62.50,4.06,4.70,,1.00,3.46,,4.31,2.35
2007-05-18 01:00,5.5,,,2960,1025.95,74.70,4.64,5.30,,1.00,3.76,,4.90,2.55
2007-05-18 02:00,5.7,,,2962,1026.32,50.16,5.58,6.16,,1.00,4.76,,5.88,3.14
2007-05-18 05:00,5.1,,,2950,1026.50,58.90,10.23,11.48,,1.00,8.70,,10.98,4.90
2007-05-18 06:00,4.8,,,2911,1026.38,61.80,10.17,10.57,,1.00,8.38,,10.39,4.51
2007-05-18 08:00,4.4,,,2893,1026.14,54.00,10.20,10.99,,1.00,8.82,,10.78,5.68
2007-05-18 09:00,4.1,,,2831,1025.83,54.70,11.08,12.31,,1.00,9.71,,11.76,6.08
2007-05-18 10:00,4.0,,,2709,1026.57,52.60,9.90,11.27,,1.00,8.63,,10.58,5.29
2007-05-18 11:00,4.1,,,2824,1026.75,57.00,10.28,11.28,,1.00,8.34,,11.37,5.68
2007-05-18 12:00,4.0,,,2229,1026.69,64.90,10.08,11.44,,1.00,8.46,,11.37,5.68
2007-05-18 13:00,4.0,,,2374,1025.64,48.61,10.93,12.07,,1.00,9.26,,11.96,5.88
2007-05-18 14:00,4.1,,,1875,1025.28,50.96,10.61,11.93,,1.00,8.89,,11.37,6.27
2007-05-18 15:00,4.0,,,1916,1025.03,42.25,11.26,12.41,,1.00,9.05,,11.96,7.06
2007-05-18 16:00,4.1,,,1352,1024.29,43.51,11.19,12.45,,1.00,9.27,,11.96,5.68
2007-05-18 17:00,4.2,,,1547,1023.37,46.66,11.55,12.73,,1.00,9.86,,12.94,6.47
2007-05-18 18:00,4.4,,,1512,1022.94,55.80,11.66,12.68,,1.00,10.00,,12.94,6.47
2007-05-18 19:00,4.4,,,1934,1021.66,50.63,13.07,13.88,,1.00,11.06,,13.33,7.25
2007-05-18 20:00,4.5,,,1198,1020.80,52.27,12.22,13.75,,1.00,10.74,,13.72,7.06
2007-05-18 21:00,4.6,,,2191,1020.18,50.66,12.20,13.33,,1.00,10.17,,13.33,6.66
2007-05-18 22:00,4.7,,,1993,1020.00,36.01,9.81,11.15,,1.00,8.55,,11.17,5.49
2007-05-19 00:00,4.9,,,2117,1019.02,39.63,10.28,11.58,,1.00,8.67,,11.56,6.08
2007-05-19 01:00,5.2,,,2282,1018.90,39.46,9.52,10.82,,1.00,8.13,,11.17,5.49
2007-05-19 02:00,5.2,,,1852,1018.35,31.05,7.98,9.61,,1.00,7.01,,9.41,4.51
2007-05-19 03:00,5.2,,,2001,1017.49,35.19,7.35,8.54,,1.00,6.51,,8.43,4.51
2007-05-19 05:00,5.8,,,1875,1015.96,32.75,7.57,8.71,,1.00,6.78,,8.62,4.70
2007-05-19 06:00,5.8,,,2301,1015.04,27.23,8.05,9.12,,1.00,6.55,,8.82,4.12
2007-05-19 07:00,5.8,,,2236,1014.24,27.06,7.80,8.73,,1.00,6.97,,8.62,4.31
2007-05-19 08:00,6.0,,,1698,1013.32,21.80,9.03,9.96,,1.00,8.06,,10.00,5.10
2007-05-19 09:00,6.2,,,1754,1012.65,19.36,8.69,9.41,,1.00,7.60,,9.41,4.70
2007-05-19 10:00,6.4,,,1539,1011.73,22.43,9.92,10.90,,1.00,8.70,,11.17,5.10
2007-05-19 12:00,7.0,,,1844,1010.63,14.62,9.81,10.60,,1.00,8.18,,10.39,5.49
2007-05-19 13:00,7.1,,,1427,1010.39,13.83,9.51,10.57,,1.00,8.29,,10.98,5.68
2007-05-19 14:00,7.0,,,1491,1010.51,10.35,5.96,7.76,,1.00,5.15,,7.45,2.94
2007-05-19 15:00,6.7,,,1836,1010.94,0.23,3.79,4.37,,1.00,2.71,,3.92,0.39
2007-05-19 16:00,7.4,,,2880,1010.69,17.75,4.67,5.94,,1.00,3.81,,5.29,1.76
2007-05-19 17:00,7.7,,,2906,1010.69,33.76,4.80,5.55,,1.00,4.02,,5.29,1.96
2007-05-19 18:00,7.0,,,1352,1010.21,39.64,5.76,6.74,,1.00,4.73,,6.27,2.74
2007-05-19 19:00,6.8,,,2640,1010.02,70.80,7.10,7.90,,1.00,6.18,,7.64,3.92
2007-05-19 20:00,6.3,,,2879,1010.02,73.50,4.53,5.35,,1.00,3.82,,4.70,1.76
2007-05-19 21:00,6.3,,,2705,1010.02,81.50,4.50,5.41,,1.00,3.88,,4.90,1.57
2007-05-19 23:00,6.4,,,2757,1010.27,73.10,3.99,5.14,,1.00,3.36,,4.12,1.37
2007-05-20 00:00,6.2,,,2653,1010.27,55.70,4.12,5.03,,1.00,3.48,,4.31,1.18
2007-05-20 01:00,5.9,,, 741,1010.21,56.80,4.05,5.31,,1.00,3.25,,4.31,0.98
2007-05-20 03:00,5.8,,,1999,1009.29,94.40,5.06,6.20,,1.00,4.29,,5.29,2.35
2007-05-20 04:00,5.7,,,1401,1008.74,76.50,5.59,6.12,,1.00,4.39,,5.88,1.96
2007-05-20 06:00,5.7,,,1298,1007.15,71.60,6.13,6.82,,1.00,5.14,,6.27,2.94
2007-05-20 07:00,5.8,,,1221,1007.33,127.90,6.28,7.14,,1.00,5.18,,6.66,2.94
2007-05-20 08:00,6.1,,,1164,1007.15,168.80,6.50,7.66,,1.00,5.53,,6.66,2.94
2007-05-20 09:00,6.0,,,1511,1007.15,181.10,4.05,5.13,,1.00,3.18,,3.72,0.00
2007-05-20 10:00,6.1,,, 908,1007.58,163.50,5.84,6.51,,1.00,4.49,,5.88,1.96
2007-05-20 11:00,5.8,,, 537,1007.27,139.80,3.38,4.84,,1.00,2.86,,3.33,0.20
2007-05-20 12:00,6.0,,,2673,1007.58,155.90,5.04,5.89,,1.00,4.28,,5.68,1.96
2007-05-20 13:00,6.0,,,2721,1007.21,150.90,6.29,7.41,,1.00,4.93,,6.86,2.55
2007-05-20 14:00,6.3,,,2737,1006.97,165.30,5.97,7.07,,1.00,5.19,,6.47,2.94
2007-05-20 15:00,6.3,,,2672,1006.60,160.00,5.49,6.32,,1.00,4.57,,5.88,2.16
2007-05-20 16:00,6.6,,,2670,1006.30,158.70,5.86,7.29,,1.00,5.06,,6.86,2.94
2007-05-20 17:00,6.2,,, 922,1005.75,132.40,4.03,5.00,,1.00,3.53,,4.12,1.18
2007-05-20 18:00,6.5,,,2482,1005.20,121.20,3.19,3.65,,1.00,2.52,,2.35,0.00
2007-05-20 19:00,6.3,,,2558,1004.89,106.90,2.97,3.61,,1.00,2.57,,2.55,0.20
2007-05-20 21:00,5.9,,,2535,1003.98,55.10,4.28,5.09,,1.00,3.78,,4.90,1.76
2007-05-20 22:00,5.5,,,2398,1003.73,41.73,4.48,5.46,,1.00,3.87,,5.10,1.76
2007-05-20 23:00,5.4,,,2096,1003.85,53.70,4.71,5.87,,1.00,4.32,,5.10,1.96
2007-05-21 00:00,5.4,,,2580,1003.85,66.60,4.03,4.45,,1.00,3.05,,3.72,0.78
2007-05-21 02:00,5.2,,,2594,1003.98,32.16,6.31,7.05,,1.00,5.18,,6.86,2.74
2007-05-21 03:00,5.3,,,2161,1004.59,353.18,3.45,4.37,,1.00,2.84,,3.53,0.98
2007-05-21 04:00,5.4,,, 413,1004.89,279.80,3.07,3.71,,1.00,2.34,,2.74,0.00
2007-05-21 05:00,5.6,,, 300,1005.14,263.60,4.71,5.11,,1.00,4.04,,4.70,2.35
2007-05-21 06:00,5.9,,,2361,1005.32,279.80,4.63,5.22,,1.00,3.90,,4.70,2.35
2007-05-21 07:00,5.8,,,1052,1005.99,278.70,3.51,3.73,,1.00,2.57,,3.14,0.78
2007-05-21 08:00,5.6,,, 569,1006.48,258.00,2.17,2.77,,1.00,1.83,,1.18,0.00
2007-05-21 09:00,5.6,,,1887,1007.33,270.10,3.86,4.41,,1.00,3.07,,3.53,1.37
2007-05-21 10:00,5.3,,,2826,1009.11,16.99,7.03,7.73,,1.00,5.87,,7.45,3.53
2007-05-21 13:00,5.6,,,2927,1012.53,343.15,5.46,6.67,,1.00,4.65,,5.88,2.35
2007-05-21 14:00,5.9,,,2947,1012.90,335.30,5.83,7.17,,1.00,5.08,,6.27,2.74
2007-05-21 15:00,6.1,,,2940,1013.32,22.23,2.67,3.68,,1.00,2.31,,2.55,0.59
2007-05-21 16:00,6.7,,,2947,1013.81,349.45,3.80,4.38,,1.00,3.11,,3.53,0.00
2007-05-21 17:00,6.6,,,2948,1014.36,336.50,3.53,4.52,,1.00,2.76,,3.53,0.98
2007-05-21 18:00,7.4,,,2942,1014.36,316.50,5.42,6.06,,1.00,4.52,,5.68,2.55
2007-05-21 19:00,7.9,,,2949,1014.85,344.68,4.39,5.35,,1.00,3.19,,4.51,1.18
2007-05-21 20:00,8.4,,,2948,1015.16,340.20,3.42,3.76,,1.00,2.36,,3.33,0.00
2007-05-21 21:00,8.3,,,2960,1015.83,326.20,2.85,3.73,,1.00,2.38,,3.14,0.78
2007-05-21 22:00,7.7,,,2959,1016.57,234.40,2.52,3.12,,1.00,1.90,,1.96,0.00
2007-05-22 00:00,6.3,,,2962,1019.33,218.30,2.14,2.89,,1.00,1.64,,1.57,0.00
2007-05-22 02:00,5.8,,,2960,1021.29,189.50,2.16,2.73,,1.00,1.74,,1.76,0.00
2007-05-22 03:00,5.7,,,2963,1021.66,186.90,2.00,2.76,,1.00,1.63,,1.57,0.00
2007-05-22 04:00,5.8,,,2959,1022.02,214.60,2.91,3.42,,1.00,2.62,,2.55,1.18
2007-05-22 05:00,5.9,,,2965,1021.96,217.30,3.17,3.51,,1.00,2.79,,2.94,1.37
2007-05-22 06:00,5.7,,,2963,1022.15,217.80,2.23,2.86,,1.00,1.98,,1.96,0.59
2007-05-22 07:00,5.6,,,2963,1022.39,188.00,1.98,2.46,,1.00,1.74,,1.37,0.20
2007-05-22 08:00,5.5,,,2964,1022.70,143.40,2.04,2.42,,1.00,1.69,,1.37,0.00
2007-05-22 09:00,5.4,,,2959,1023.19,106.70,2.26,2.79,,1.00,1.91,,1.76,0.00
2007-05-22 10:00,5.9,,,2958,1023.62,108.20,2.27,2.97,,1.00,1.95,,1.76,0.59
2007-05-22 11:00,6.7,,,2962,1024.42,138.40,2.22,2.61,,1.00,1.86,,1.76,0.20
2007-05-22 12:00,7.3,,,2951,1024.97,165.60,1.26,1.78,,1.00,0.91,,0.39,0.00
2007-05-22 13:00,7.1,,,2960,1025.52,68.50,2.25,2.56,,1.00,1.40,,1.96,0.00
2007-05-22 15:00,5.9,,,2948,1026.32,91.10,7.22,7.52,,1.00,6.12,,7.25,4.12
2007-05-22 16:00,5.7,,,2904,1026.63,99.00,7.98,8.67,,1.00,6.37,,8.62,3.72
2007-05-22 17:00,5.6,,,2912,1027.06,103.30,8.00,8.77,,1.00,6.86,,8.43,4.51
2007-05-22 18:00,6.0,,,2949,1027.06,114.70,6.28,7.14,,1.00,5.09,,6.66,3.14
2007-05-22 19:00,6.2,,,2883,1026.81,128.40,5.02,5.58,,1.00,4.14,,5.10,2.74
2007-05-22 20:00,6.4,,,2855,1026.81,129.60,5.78,6.69,,1.00,4.92,,6.27,2.94
2007-05-22 21:00,6.7,,,2857,1026.81,126.50,6.09,7.20,,1.00,5.30,,6.47,3.72
2007-05-22 22:00,6.8,,,2582,1027.43,161.10,3.70,4.11,,1.00,2.95,,3.53,1.18
2007-05-22 23:00,6.9,,,2957,1028.10,191.40,1.64,2.40,,1.00,1.18,,0.78,0.00
2007-05-23 00:00,6.3,,,2964,1028.66,117.20,2.15,2.71,,1.00,1.62,,1.57,0.00
2007-05-23 01:00,6.0,,,2960,1029.39,52.70,1.98,2.44,,1.00,1.78,,1.57,0.00
2007-05-23 02:00,5.9,,,2965,1030.01,69.00,3.20,3.62,,1.00,2.93,,3.14,1.76
2007-05-23 03:00,5.9,,,2957,1030.25,77.00,4.02,4.51,,1.00,3.72,,4.12,2.35
2007-05-23 04:00,5.8,,,2959,1030.44,64.60,4.33,4.87,,1.00,3.84,,4.31,2.35
2007-05-23 06:00,5.9,,,2965,1030.62,91.20,4.93,6.38,,1.00,4.46,,5.88,3.14
2007-05-23 07:00,5.8,,,2965,1030.87,89.60,3.55,3.83,,1.00,2.86,,3.33,1.18
2007-05-23 08:00,5.6,,,2965,1030.93,85.70,4.85,5.40,,1.00,4.20,,5.10,2.94
2007-05-23 09:00,5.7,,,2962,1031.12,104.70,5.27,5.85,,1.00,4.43,,5.49,2.94
2007-05-23 10:00,6.3,,,2950,1031.73,126.20,5.09,5.52,,1.00,4.40,,5.10,2.74
2007-05-23 11:00,6.5,,,2957,1032.35,130.60,5.68,6.50,,1.00,4.78,,5.88,2.94
2007-05-23 12:00,6.4,,,2958,1032.84,132.90,5.95,6.75,,1.00,5.21,,6.27,3.14
2007-05-23 13:00,6.2,,,2944,1033.39,120.40,5.81,6.49,,1.00,5.04,,5.88,3.33
2007-05-23 15:00,5.9,,,2959,1034.01,87.90,4.33,4.98,,1.00,3.75,,4.51,2.35
2007-05-23 16:00,5.9,,,2925,1033.95,89.20,5.19,5.59,,1.00,4.44,,5.10,2.74
2007-05-23 17:00,6.0,,,2957,1033.64,95.90,5.37,5.87,,1.00,4.41,,5.49,2.74
2007-05-23 18:00,6.3,,,2962,1033.27,100.00,4.97,5.77,,1.00,4.16,,5.49,2.74
2007-05-23 20:00,6.5,,,2669,1032.22,131.90,4.36,5.16,,1.00,3.88,,5.10,2.55
2007-05-23 21:00,6.5,,,2869,1031.79,139.40,5.20,5.68,,1.00,4.29,,5.29,2.74
2007-05-23 22:00,6.6,,,2705,1031.55,153.30,6.03,6.71,,1.00,5.00,,5.88,3.14
2007-05-23 23:00,6.6,,,2948,1031.12,152.90,5.36,5.97,,1.00,4.59,,5.49,2.74
2007-05-24 01:00,6.5,,,2934,1031.18,149.70,4.71,5.46,,1.00,3.96,,4.70,1.96
2007-05-24 02:00,6.6,,,2947,1031.12,158.10,3.45,4.01,,1.00,2.90,,3.33,1.57
2007-05-24 05:00,6.4,,,2897,1029.95,165.40,3.60,4.52,,1.00,3.01,,3.53,1.57
2007-05-24 06:00,6.4,,,2904,1029.39,171.70,3.65,4.31,,1.00,3.08,,3.53,1.76
2007-05-24 07:00,6.6,,,2889,1028.84,179.80,3.97,4.66,,1.00,3.31,,4.12,1.96
2007-05-24 08:00,6.6,,,2872,1028.41,180.40,4.40,5.08,,1.00,3.77,,4.90,2.16
2007-05-24 09:00,6.6,,,2840,1028.04,177.80,4.82,5.68,,1.00,3.97,,4.90,2.35
2007-05-24 10:00,6.6,,,2824,1027.92,176.00,4.49,5.59,,1.00,3.93,,4.51,2.16
2007-05-24 11:00,6.8,,,2779,1028.16,185.60,3.39,4.18,,1.00,2.81,,3.14,1.37
2007-05-24 13:00,8.3,,,2829,1027.67,185.90,0.92,1.85,,1.00,0.47,,0.39,0.00
2007-05-24 14:00,7.0,,,2676,1027.24,198.50,1.74,2.38,,1.00,1.10,,1.37,0.00
2007-05-24 15:00,7.2,,,2687,1026.32,193.10,2.55,3.52,,1.00,2.01,,2.35,0.59
2007-05-24 16:00,7.2,,,2700,1025.52,175.90,2.48,2.81,,1.00,1.92,,1.96,0.59
2007-05-24 17:00,7.1,,,2623,1024.11,215.70,4.39,4.73,,1.00,3.80,,4.12,1.76
2007-05-24 18:00,7.3,,,2787,1023.25,219.20,4.14,4.73,,1.00,3.68,,4.31,2.35
2007-05-24 19:00,7.1,,,2804,1022.08,220.60,5.52,5.99,,1.00,4.79,,5.68,3.33
2007-05-24 20:00,7.2,,,2916,1021.10,215.20,5.38,5.99,,1.00,4.74,,5.68,3.33
2007-05-24 21:00,7.2,,,2897,1020.18,219.30,6.84,7.46,,1.00,6.02,,7.25,4.12
2007-05-24 22:00,7.4,,,2674,1019.88,213.40,5.23,6.12,,1.00,4.30,,5.49,2.55
2007-05-24 23:00,7.4,,,2364,1019.39,225.70,5.43,6.08,,1.00,4.68,,5.49,2.74
2007-05-25 00:00,7.6,,,2871,1019.02,245.00,4.99,5.82,,1.00,4.34,,5.10,2.74
2007-05-25 01:00,7.7,,,2900,1018.71,236.60,5.66,6.56,,1.00,4.91,,5.88,3.33
2007-05-25 02:00,7.5,,,2885,1018.47,255.30,4.48,4.98,,1.00,3.79,,4.31,1.96
2007-05-25 04:00,7.6,,,2850,1017.43,277.40,3.68,4.21,,1.00,3.28,,3.33,1.76
2007-05-25 05:00,7.9,,,2828,1016.87,249.30,3.94,4.69,,1.00,3.22,,3.72,1.18
2007-05-25 06:00,8.3,,,2867,1016.20,258.10,3.15,4.07,,1.00,2.90,,2.94,1.76
2007-05-25 07:00,8.6,,,2861,1015.83,265.00,3.73,4.39,,1.00,3.45,,3.53,2.16
2007-05-25 08:00,9.6,,,2848,1015.53,286.80,4.06,4.28,,1.00,3.43,,3.92,2.16
2007-05-25 09:00,9.7,,,2803,1015.53,276.90,5.38,6.05,,1.00,4.75,,5.29,3.53
2007-05-25 10:00,10.5,,,2428,1015.53,290.50,4.35,4.79,,1.00,3.94,,4.51,2.74
2007-05-25 14:00,14.6,,,2800,1015.96,83.80,1.50,2.03,,1.00,0.77,,0.98,0.00
2007-05-25 15:00,14.8,,,2892,1015.90,263.60,3.07,3.46,,1.00,1.88,,2.55,0.00
2007-05-25 16:00,14.1,,,2809,1015.65,104.50,3.17,3.43,,1.00,1.76,,2.74,0.00
2007-05-25 17:00,12.7,,,2676,1015.10,155.30,3.16,3.54,,1.00,2.66,,2.94,1.57
2007-05-25 18:00,12.0,,,2602,1014.61,207.70,4.46,5.19,,1.00,3.81,,4.51,2.35
2007-05-25 19:00,11.1,,,2549,1014.06,220.90,5.10,5.51,,1.00,4.85,,5.29,3.33
2007-05-25 20:00,12.4,,,2682,1013.51,216.00,4.90,5.40,,1.00,4.49,,5.29,3.14
2007-05-25 21:00,11.2,,,2658,1013.14,225.90,3.89,4.27,,1.00,3.43,,3.92,2.35